sat.trackr.live / text

‹ back to catalog

ONEWEB-0173

NORAD 48069 · 2021-025AD

PAYLOAD ACTIVE UNKNOWN

§ Identity

Operator
Country
UK
Launch date
2021-03-25
Launch site
VOSTO
Launch vehicle
Mass (kg)
RCS (m²)

Purposes: comms

External: N2YO · Heavens-Above · Gunter

§ Orbital elements

Epoch: 2026-05-24T23:24:33.862752Z

Period
109.63 min
Inclination
87.8945°
Eccentricity
0.0001473
Mean motion
13.13468592 rev/d
Perigee alt
1,208.7 km
Apogee alt
1,210.9 km
Semi-major
7,587.9 km
B*
-3.0087e-4
RAAN
324.8463°
Arg perigee
100.4260°
Mean anomaly
259.7035°
Rev number
25,075

§ Raw data

ONEWEB-01731 48069U 21025AD  26144.97539193 -.00000097  00000+0 -30087-3 0  99982 48069  87.8945 324.8463 0001473 100.4260 259.7035 13.13468592250750

JSON: /api/v1/satellites/48069 · /tle

For live sub-satellite position, see the globe view (requires WebGL).

§ Visibility from observer

Set your observer location to see the next 7 days of passes ≥ 10°. The values pass through the URL so the page stays shareable.

No JS? Fill the form by hand. The geolocation button needs JavaScript.